Voltar ao catálogo

CZ-6A DEB

AtivoPO
NORAD 61367·DEBRIS·🇨🇳 China

Lançado Aug 6, 2024 de Taiyuan Satellite Launch Center

Loading…

Próximas Passagens (próximas 24 horas)

TLE

AtualizadoSource: Space-Track

Época: Sep 14, 2026, 05:26 UTC

1 61367U 24140WG  26257.22669608  .00000396  00000-0  16394-3 0  9999
2 61367  88.7707 243.3304 0027665 207.3479 152.6259 14.24458140105312

Acompanhe CZ-6A DEB em tempo real com AllMySat

Download on the App Store